EUTE 33A (EB 3)

Satellite information

Favourite Embed

Satellite Type and Status

PAYLOADIN ORBIT

Key statistics

Satellite EUTE 33A (EB 3) at a glance.

Uptime

8017

Days in orbit

Revolutions

≈ 1.0

Per day

Orbit

OTHER

Other

Inclination

9.1

Latest

Satellite identification and parameters

Extended collection of information and parameters for EUTE 33A (EB 3).

Object identification

Identified? True

Debris? False

Object name: EUTE 33A (EB 3)

International designator: 2003-043A

Object number (NORAD): 27948

Object ID (CCSDS): 27948

Country: EUROPEAN TELECOMMUNICATIONS SATELLITE ORGANIZATION (EUTELSAT) (EUTE)

Current information (Y/N): Y

RCS size: MEDIUM

Orbital parameters

Period: 1456.251 minutes

Inclination: 9.0776 deg

SMA: 42558.305 km

Apoapsis: 36204.536 km

Periapsis: 36155.803 km

RAAN: 58.4452 deg

Eccentricy: 0.00057254

Argument of periapsis: 170.3269 deg

Mean anomaly: 193.3815 deg

Mean motion: 0.98884059 rev/day

Mean motion (dot): -0.00000141 rev/day2

B* drag term: 0.0 1/REarth

Two-line elements (TLE)

Creation date: Sept. 7, 2025, 3:09 a.m.

Reference frame: TEME

Reference center: EARTH

Epoch: Sept. 6, 2025, 9:35 p.m. UTC

TLE line 0: 0 EUTE 33A (EB 3)

TLE line 1: 1 27948U 03043A 25249.89981243 -.00000141 00000-0 00000-0 0 9993

TLE line 2: 2 27948 9.0776 58.4452 0005725 170.3269 193.3815 0.98884059 42261

Live tracking on map

Real-time ground track for satellite EUTE 33A (EB 3).

In-orbit conjunctions

There are no conjunctions computed for EUTE 33A (EB 3), at the moment. Check back to stay up to date, as we update our databases every day.

Go to all conjunctions

Associated space launch

INSAT-3A is a multipurpose satellite for providing telecommunications, television broadcasting, meteorological and search & rescue services. INSAT-3A payloads include Normal C-band transponders with expanded coverage from Middle East to South East Asia, Extended C-band transponders providing India coverage and Ku-band transponders providing India coverage. The satellite also carries one Data Relay Transponder (DRT) and one Satellite Aided Search and Rescue (SAS&R) payload. SAS&R payload has a global receive coverage with 406 MHz uplink and C-band downlink with India coverage for the relay of signals from distress beacons in sea, air or land.

EUTE 33A (EB 3) was lifted into orbit during the mission ‘Ariane 5 G | INSAT-3E, eBird 1, SMART-1’, on board a Ariane 5 G space rocket.

The launch took place on Sept. 27, 2003, 11:14 p.m. from Ariane Launch Area 3.

For more information about the launch, click the button.

Launch to space Ariane 5 G | INSAT-3E, eBird 1, SMART-1
Ariane 5 G | INSAT-3E, eBird 1, SMART-1

Agency: N/A

Status: Launch Successful

Launch date: Sept. 27, 2003, 11:14 p.m. UTC

Rocket: Ariane 5 G

Launch pad: Ariane Launch Area 3

Location: Guiana Space Centre, French Guiana

...

Latest news about this satellite

There are no fresh news available about this satellite. Check back as we update our databases every day.


Newsletter sign-up

Weekly statistics, charts and insights to help you stay on top of the space industry.